Regional Weather Roundup
Issued by NWS Wakefield, VA

Home | Current Version | Previous Version | Text Only | Print | Product List | Glossary Off
Versions: 1 2 3 4 5 6 7 8 9 10 11 12 13 14 15 16 17 18 19 20 21 22 23 24 25 26 27 28 29 30 31 32 33 34 35 36 37 38 39 40 41 42 43 44 45 46 47 48 49 50

000
ASUS41 KAKQ 151210
RWRAKQ

REGIONAL WEATHER ROUNDUP
NATIONAL WEATHER SERVICE WAKEFIELD VA
800 AM EDT MON SEP 15 2014

Note: "fair" indicates few or no clouds below 12,000 feet with no
significant weather and/or obstructions to visibility. * = Denotes
station may not report precipitation (e.g., rain,snow,etc.),
thunder or fog.

VAZ042-051-052>054-056-151300-
NORTHERN VIRGINIA

CITY           SKY/WX    TMP DP  RH WIND       PRES   REMARKS
WASH NATIONAL  PTSUNNY   61  51  70 N3        30.26R
DULLES         MOSUNNY   53  50  89 CALM      30.26R
FORT BELVOIR   MOSUNNY   53  51  95 CALM      30.26R
QUANTICO       MOSUNNY   55  52  89 NW8       30.26R
FREDERICKSBRG* SUNNY     55  55 100 CALM      30.24S
STAFFORD*      PTSUNNY   52  52 100 CALM      30.28S
WARRENTON      SUNNY     52  52 100 NE3       30.25R
CULPEPER*      SUNNY    N/A N/A N/A CALM      30.26S
MANASSAS*      SUNNY     50  50 100 CALM      30.26R
LEESBURG*      SUNNY     52  52 100 CALM      30.26S
WINCHESTER     SUNNY     50  48  93 CALM      30.26R
FRONT ROYAL*   CLOUDY    48  48 100 CALM      30.26R VSB<1/4
LURAY*         FOG       48  48 100 CALM      30.26S VSB<1/4
$$

VAZ048-049-060>072-079>083-151300-
CENTRAL AND SOUTH CENTRAL VIRGINIA...AND NORTH CENTRAL NORTH CAROLINA

CITY           SKY/WX    TMP DP  RH WIND       PRES   REMARKS
RICHMOND       PTSUNNY   64  56  75 CALM      30.24R
CHESTERFIELD*  CLOUDY   N/A N/A N/A CALM      30.25R
PETERSBURG*    CLOUDY    62  60  91 CALM      30.24S
HANOVER        CLOUDY    58  57  97 CALM      30.26R
TAPPAHANNOCK*  SUNNY     55  53  92 CALM      30.25R
CHARLOTTSVILLE PTSUNNY   54  52  93 CALM      30.25R
ORANGE*        MOSUNNY   52  50  93 CALM      30.26S
LOUISA*        MOSUNNY   54  52  94 CALM      30.24R
FARMVILLE*     CLOUDY    63  61  94 CALM      30.22S
CREWE*         CLOUDY    64  61  90 CALM      30.24R
FORT PICKETT*  CLOUDY    61  58  91 SE3       30.23S
LUNENBURG*     CLOUDY    62  60  95 CALM      30.24R
SOUTH HILL*    CLOUDY    63  63 100 CALM      30.29S
LAWRENCEVILLE* CLOUDY    62  60  93 CALM      30.23F
ROANOKE RAPIDS CLOUDY    61  59  94 CALM      30.24R
RALEIGH        CLOUDY    64  60  87 CALM      30.25R
$$

VAZ088>098-151300-
SOUTHEAST VIRGINIA

CITY           SKY/WX    TMP DP  RH WIND       PRES   REMARKS
NORFOLK        CLOUDY    69  59  70 CALM      30.22S
VIRGINIA BEACH PTSUNNY   66  62  87 CALM      30.22R
NORFOLK NAVAL  PTSUNNY   70  60  70 N5        30.24R
WEST POINT*    NOT AVBL
NEWPORT NEWS   CLOUDY    69  61  75 N5        30.23S
LANGLEY AFB    CLOUDY    65  65  99 NW3       30.23R
FORT EUSTIS    CLOUDY    66  66 100 N3        30.22R
WILLIAMSBURG*  CLOUDY    66  63  88 CALM      30.24S
HR EXEC AP*    CLOUDY    63  61  94 CALM      30.25S
FRANKLIN*        N/A     63  61  94 CALM      30.24R
WAKEFIELD      CLOUDY    64  60  87 CALM      30.24R
$$

VAZ020-022-025-037-045-151300-
WEST CENTRAL AND SOUTHWEST VIRGINIA

CITY           SKY/WX    TMP DP  RH WIND       PRES   REMARKS
STAUNTON*      FOG       47  46  95 CALM      30.28R VSB<1/4
HOT SPRINGS VA NOT AVBL
LYNCHBURG      MOSUNNY   57  56  96 CALM      30.26R
DANVILLE       CLOUDY    63  59  87 CALM      30.25R
SOUTH BOSTON*  NOT AVBL
MARTINSVILLE   CLOUDY    60  60 100 CALM      30.27R
ROANOKE        PTSUNNY   58  56  93 CALM      30.27R
BLACKSBURG     CLOUDY    59  59 100 CALM      30.28S FOG
DUBLIN*        FOG       58  58 100 CALM      30.27S VSB 1/4
MARION*        FOG       59  58  96 CALM      30.30R VSB 1/2
HILLSVILLE*    FOG       56  56 100 CALM      30.28R VSB<1/4
RICHLANDS*     FOG       63  61  95 CALM      30.26S VSB<1/4
WISE*          FOG       61  61 100 CALM      30.27S VSB<1/4
ABINGDON*      CLOUDY    61  61  99 CALM      30.25S FOG
$$

MDZ021>025-VAZ099-100-151300-
SOUTHERN MARYLAND AND THE DELMARVA PENINSULA

CITY           SKY/WX    TMP DP  RH WIND       PRES   REMARKS
PATUXENT RIVER PTSUNNY   60  58  92 CALM      30.24R
BAY BRIDGE APT   N/A     59  52  77 CALM      30.25R
LEONARDTOWN    SUNNY     54  52  94 CALM      30.26R
DOVER          SUNNY     54  51  92 N3        30.23R
GEORGETOWN     SUNNY     55  50  83 CALM      30.25R
EASTON         PTSUNNY   55  55 100 CALM      30.28R
CAMBRIDGE      PTSUNNY   55  52  88 CALM      30.24S
SALISBURY      SUNNY     57  51  80 CALM      30.24S
OCEAN CITY     SUNNY     56  53  90 NW3       30.24R
WALLOPS ISLAND SUNNY     62  54  74 CALM      30.24S
ACCOMACK*      CLOUDY    61  55  82 E3        30.23S
$$

NCZ012>017-030>032-151300-
EASTERN NORTH CAROLINA

CITY           SKY/WX    TMP DP  RH WIND       PRES   REMARKS
ELIZABETH CITY CLOUDY    66  60  81 N7        30.23R
AHOSKIE*       CLOUDY    62  59  91 N3        30.24R
EDENTON*       CLOUDY    64  61  93 CALM      30.23R
CURRITUCK*     CLOUDY    65  61  87 CALM      30.23R
KILL DEVIL HLS CLOUDY    69  60  71 N3        30.21R
MANTEO         CLOUDY    69  60  73 NE6       30.22R
CAPE HATTERAS  CLOUDY    69  59  70 NE10G17   30.20R
TARBORO*       CLOUDY    64  60  87 CALM      30.24S
GOLDSBORO      PTSUNNY   64  64 100 NE5       30.22R
WASHINGTON     CLOUDY    64  61  90 N3        30.23R
GREENVILLE     CLOUDY    64  63  94 N3        30.24R
NEW BERN       CLOUDY    68  62  81 N6        30.23R
WILMINGTON     CLOUDY    69  64  84 N6        30.20R
$$

VAZ048-151300-
ELSEWHERE

CITY           SKY/WX    TMP DP  RH WIND       PRES   REMARKS
HARRISBURG PA  SUNNY     53  49  86 NW5       30.25R
BALTIMORE      PTSUNNY   56  50  80 CALM      30.25R
ANNAPOLIS      CLOUDY    62  55  77 NW5       30.25R
ANDREWS AFB    CLOUDY    57  53  86 N2        30.25R
WILMINGTON DE  SUNNY     55  50  83 NE5       30.25S
PHILADELPHIA   MOSUNNY   56  47  71 N10       30.25S
WILDWOOD NJ*   SUNNY     55  50  82 N3        30.24S
ATLANTIC CITY  SUNNY     51  50  96 NW6       30.23S
HENDERSON NC   CLOUDY    62  59  88 CALM      30.25R
GREENSBORO     PTSUNNY   63  60  90 CALM      30.24R
ROCKY MOUNT    CLOUDY    64  60  87 NE5       30.23S
FAYETTEVILLE   CLOUDY    66  63  90 NE3       30.22R
CHARLOTTE      CLOUDY    67  62  84 CALM      30.23R
$$

VAZ100-151300-
MARINE

STATION/POSITION TIME  TEMP    WIND        PRES    WAVE   SWELL
                       AIR SEA DIR/SP/G            HT/PER HT/PER
                 (UTC) (F)     (DEG/KT/KT) (MB)    (FT/S) (FT/S)
44066 TX TWR #4  1200   66 73   50/  6/  8 1022.6R   2/ 7   2/ 7
CAPE MAY NJ      1200   64 75  340/  7/ 10 1023.3R
LEWES DE         1200   58 71  280/  3/  5 1023.5R
15NM E FENWICK I 1200   66 72              1023.4R   2/ 3
OCEAN-CITY-INLET 1200   60 71  350/  4/  5 1023.5S
WACHAPREAGUE VA  1200   63 71   10/  4/  6 1023.7F
THOMAS POINT MD  1200   63 74   70/  6/  7 1025.2R
GOOSES REEF MD   1200   64     100/  8/ 10 1024.4S
COVE POINT MD    1200   62     100/  8/  9 1023.9R
SOLOMONS ISLAND  1200      76                N/A
BISHOPS HEAD MD  1200   64 70   60/  5/  7 1023.5R
PINEY POINT MD   1200           40/  4/  4   N/A
POTOMAC MD       1200   67      60/  4/  6 1023.1R
CAMBRIDGE MD     1200   59 75   CALM  /  2 1023.9S
LEWISETTA VA     1200   61 73  280/  2/  3 1023.5S
RAPPAHANNOCK LGT 1200           60/  9/ 10 1024.1R
STINGRAY PT      1200   68     350/  4/  6   N/A
YORK RVR RNG VA  1200   68      10/  5/  7 1023.2R
YORKTOWN VA      1200   67 77  350/  7/  8 1023.2S
JAMESTOWN VA     1200   64     120/  2/  2   N/A
DOMINION TERM VA 1200   66      20/  4/  5 1023.4F
KIPTOPEKE VA     1200      78   60/  3/  4   N/A
CHES BAY BRIDGE  1200   69 75   20/  5/  7 1022.9S
CAPE HENRY VA    1200   69      40/  7/  8 1022.2R
CHESAPEAKE LGHT  1100   69      10/  9/ 11 1023.7S
WILLOUBY STN VA  1200   68      10/  5/  6 1022.0F
S CRANEY ISL VA  1200          360/  5/  6 1023.2R
CAPE HENRY BUOY  1200      76                N/A     2/ 6
1ST LANDING BUOY 1200   69      40/  6/  8 1023.0S
CAPE CHARLES BUO 1200      75                N/A     2/ 6   2/ 6
OFFSHORE WE BUOY 1200      74                N/A     3/ 7   2/ 7
64NM E OF VA BCH 1200   71 80   20/ 14/ 17 1022.6R   3/ 6   2/ 6
DUCK PIER NC     1200   70 76   40/  9/ 12 1022.4R
44100 DUCK FRF   1200      75                N/A     3/ 7
44056 DUCK FRF   1200                        N/A     2/ 7
OREGON INLET NC  1200   70 75   20/ 10/ 13 1022.8S
HATTERAS NC      1200   72 77   40/  9/ 17 1022.9S
DIAMOND SHLS NC  1200   74     360/ 16/ 21 1021.9R   4/ 7   2/ 8
CAPE LOOKOUT NC  1100   71      20/ 10/ 13 1022.3R
$$


USA.gov is the U.S. government's official web portal to all federal, state and local government web resources and services.